Volver al catálogo

FENGYUN 1C DEB

ActivoSSO
NORAD 33747·DEBRIS·🇨🇳 China

Lanzado May 10, 1999 desde Taiyuan Satellite Launch Center

Loading…

Próximos Pases (próximas 24 horas)

TLE

ActualizadoSource: Space-Track

Época: Sep 11, 2026, 17:52 UTC

1 33747U 99025DJL 26254.74467705  .00003076  00000-0  14260-2 0  9999
2 33747  99.0968   1.2847 0088712 163.2178 197.1965 14.19440747940038

Sigue FENGYUN 1C DEB en tiempo real con AllMySat

Download on the App Store